WAT380 SCCY-SCNT

Flight info

Callsign WAT380
Flight time N/A
Altitude 33000
Route 453710S0720835W DCT SURTA DCT BETRI DCT NIPLA DCT SINEL DCT KOLPU DCT TOKOS DCT TOPEM DCT TEKIS DCT 5148S07210W
Aircraft E145/M-SDFGIRW/S

Departure

Time N/A
Airport Teniente Vidal Airport (SCCY)

Arrival

Time 2026-04-27 00:42
Airport Lieutenant Julio Gallardo Airport (SCNT)
Time Latitude Longitude Altitude Speed Heading
2026-04-27 00:38 -51.76796 -72.30675 2900 ft 130 kts 271°
2026-04-27 00:38 -51.76572 -72.32055 2771 ft 137 kts 315°
2026-04-27 00:39 -51.75904 -72.33085 2551 ft 133 kts 302°
2026-04-27 00:39 -51.75551 -72.34472 2320 ft 130 kts 299°
2026-04-27 00:39 -51.74977 -72.35556 2149 ft 124 kts 312°
2026-04-27 00:39 -51.74418 -72.36603 1932 ft 126 kts 307°
2026-04-27 00:40 -51.73898 -72.37742 1757 ft 122 kts 308°
2026-04-27 00:40 -51.70615 -72.44212 1179 ft 119 kts 310°
2026-04-27 00:40 -51.70065 -72.45255 1068 ft 121 kts 308°
2026-04-27 00:40 -51.69542 -72.46378 990 ft 127 kts 305°
2026-04-27 00:41 -51.69060 -72.47548 973 ft 123 kts 305°
2026-04-27 00:41 -51.68581 -72.48698 781 ft 124 kts 302°
2026-04-27 00:41 -51.68137 -72.49902 586 ft 125 kts 301°
2026-04-27 00:41 -51.67709 -72.51088 375 ft 122 kts 301°
2026-04-27 00:42 -51.67303 -72.52245 234 ft 108 kts 302°
2026-04-27 00:42 -51.67064 -72.52892 227 ft 20 kts 299°
2026-04-27 00:42 -51.67020 -72.53007 226 ft 6 kts 321°
2026-04-27 00:42 -51.66972 -72.53005 226 ft 8 kts 23°
2026-04-27 00:43 -51.66922 -72.52963 227 ft 7 kts 28°
2026-04-27 00:43 -51.66869 -72.52952 227 ft 9 kts 341°
2026-04-27 00:43 -51.66837 -72.52941 227 ft 0 kts 126°